GROZA UMMS-UMMS

Flight info

Callsign GROZA
Flight time N/A
Altitude 20000
Route AGNEF2F AGNEF DCT RUHAL RUHAL2H
Aircraft F14/M-SDE3FGHIRWY/LB1

Departure

Time 2026-05-07 19:50
Airport Minsk National Airport (UMMS)

Arrival

Time N/A
Airport Minsk National Airport (UMMS)
Time Latitude Longitude Altitude Speed Heading
2026-05-07 19:49 54.01957 28.38194 21445 ft 456 kts 38°
2026-05-07 19:50 54.03023 28.41177 25307 ft 383 kts 58°
2026-05-07 19:50 54.04074 28.43585 30272 ft 241 kts 58°
2026-05-07 19:50 54.05152 28.46004 29977 ft 318 kts 52°
2026-05-07 19:50 54.06706 28.49431 27817 ft 397 kts 63°
2026-05-07 19:51 54.08256 28.53012 28419 ft 425 kts 50°
2026-05-07 19:51 54.10013 28.57348 28136 ft 458 kts 58°
2026-05-07 19:51 54.11541 28.61726 31414 ft 425 kts 62°
2026-05-07 19:51 54.12988 28.66299 32298 ft 457 kts 64°
2026-05-07 19:52 54.14646 28.71274 32019 ft 506 kts 62°
2026-05-07 19:52 54.16626 28.76687 29487 ft 596 kts 59°
2026-05-07 19:52 54.18872 28.83006 28053 ft 632 kts 61°
2026-05-07 19:52 54.20787 28.89194 32241 ft 571 kts 66°
2026-05-07 19:53 54.22049 28.94504 37814 ft 496 kts 72°
2026-05-07 19:53 54.22370 28.95938 38865 ft 489 kts 71°
2026-05-07 19:53 54.23403 29.00623 39515 ft 512 kts 70°
2026-05-07 19:54 54.24342 29.05144 36577 ft 583 kts 73°
2026-05-07 19:54 54.25003 29.08354 33417 ft 651 kts 72°
2026-05-07 19:54 54.26886 29.13957 20820 ft 800 kts 54°
2026-05-07 19:55 54.28818 29.18891 3127 ft 909 kts 58°